This demonstration page uses our WeatherBlox Daily Observations layout. Learn more.

Left ArrowRight Arrow

44.8408, -93.29828

Hourly Observations for March 23, 2018

Temp ( °F °C ) Dew Point ( °F °C ) Humidity (%) Winds ( mph kmh ) Pressure ( in mb ) Visibility ( mi km ) Precip ( " mm )
12:53 am 00:53 Clear 29 -1.7 24 -4.4 82 82 NNE 5 7 30.40 1030 10 16 0.00 0.00
1:53 am 01:53 Clear 28 -2.2 25 -3.9 88 88 Calm 30.41 1030 10 16 0.00 0.00
2:53 am 02:53 Clear 27 -2.8 24 -4.4 89 89 NE 3 6 30.40 1030 10 16 0.00 0.00
3:53 am 03:53 Clear 29 -1.7 22 -5.6 75 75 ENE 3 6 30.39 1029 10 16 0.00 0.00
4:53 am 04:53 Clear 31 -0.6 18 -7.8 59 59 E 7 11 30.39 1029 10 16 0.00 0.00
5:53 am 05:53 Clear 31 -0.6 17 -8.3 56 56 E 9 15 30.38 1029 10 16 0.00 0.00
6:53 am 06:53 Mostly Cloudy 31 -0.6 16 -8.9 54 54 E 8 13 30.37 1029 10 16 0.00 0.00
7:53 am 07:53 Mostly Cloudy 32 0 14 -10 47 47 E 7 11 30.38 1029 10 16 0.00 0.00
8:53 am 08:53 Mostly Cloudy 34 1.1 11 -11.7 38 38 ESE 15 24 30.37 1029 10 16 0.00 0.00
9:53 am 09:53 Mostly Cloudy 37 2.8 11 -11.7 34 34 E 10 17 30.37 1028 10 16 0.00 0.00
10:53 am 10:53 Mostly Cloudy 39 3.9 11 -11.7 31 31 E 14 22 30.36 1028 10 16 0.00 0.00
11:53 am 11:53 Mostly Cloudy 40 4.4 10 -12.2 29 29 ESE 16 26 30.36 1028 10 16 0.00 0.00
12:53 pm 12:53 Cloudy 40 4.4 12 -11.1 32 32 E 17 28 30.34 1027 10 16 0.00 0.00
1:53 pm 13:53 Cloudy 40 4.4 14 -10 35 35 E 20 31 30.32 1027 10 16 0.00 0.00
2:53 pm 14:53 Cloudy 42 5.6 15 -9.4 33 33 E 18 30 30.31 1026 10 16 0.00 0.00
3:53 pm 15:53 Cloudy 42 5.6 16 -8.9 35 35 ESE 21 33 30.27 1025 10 16 0.00 0.00
4:53 pm 16:53 Cloudy 42 5.6 16 -8.9 35 35 E 21 33 30.24 1024 10 16 0.00 0.00
5:53 pm 17:53 Cloudy 41 5 15 -9.4 35 35 E 18 30 30.23 1024 10 16 0.00 0.00
6:53 pm 18:53 Cloudy 39 3.9 17 -8.3 41 41 E 17 28 30.20 1023 10 16 0.00 0.00
7:53 pm 19:53 Cloudy 39 3.9 15 -9.4 38 38 E 23 37 30.20 1023 10 16 0.00 0.00
8:53 pm 20:53 Cloudy 38 3.3 16 -8.9 41 41 E 20 31 30.19 1022 10 16 0.00 0.00
9:53 pm 21:53 Cloudy 38 3.3 16 -8.9 41 41 E 16 26 30.20 1023 10 16 0.00 0.00
10:53 pm 22:53 Cloudy 38 3.3 16 -8.9 41 41 E 15 24 30.23 1024 10 16 0.00 0.00
11:53 pm 23:53 Cloudy 38 3.3 15 -9.4 39 39 E 16 26 30.23 1024 10 16 0.00 0.00

Powered by AerisWeather